Location: Dreilärchen
(47.9312°N, 8.6113°E)
Time: 07:54:41
(UTC+00:00)

ALOS - Visible Passes

Search period start: 06 October 2022 00:00
Search period end: 16 October 2022 00:00
Orbit: 681 x 683 km, 97.9° (Epoch: 05 October)

Date Brightness Start Highest point End Pass type
(mag) Time Alt. Az. Time Alt. Az. Time Alt. Az.
06 Oct 2.7 02:37:39 10° NNE 02:42:00 59° E 02:42:00 59° E visible
06 Oct 3.7 04:15:56 10° NNW 04:19:14 19° WNW 04:20:27 18° W visible
07 Oct 4.8 01:38:01 10° NE 01:40:23 16° E 01:40:23 16° E visible
07 Oct 2.2 03:14:13 10° N 03:18:50 63° WNW 03:18:50 63° WNW visible
08 Oct 3.8 02:13:37 10° NNE 02:17:13 34° ENE 02:17:13 34° ENE visible
08 Oct 3.1 03:51:09 10° N 03:55:12 30° WNW 03:55:41 29° WNW visible
09 Oct 2.5 02:49:55 10° NNE 02:54:03 67° NE 02:54:03 67° NE visible
09 Oct 3.9 04:28:40 10° NNW 04:31:23 15° WNW 04:32:30 14° WNW visible
10 Oct 4.6 01:49:52 10° NE 01:52:25 20° ENE 01:52:25 20° ENE visible
10 Oct 2.5 03:26:36 10° N 03:30:52 48° WNW 03:30:52 48° WNW visible
11 Oct 3.5 02:25:46 10° NNE 02:29:14 39° ENE 02:29:14 39° ENE visible
11 Oct 3.4 04:03:40 10° N 04:07:23 24° WNW 04:07:42 24° WNW visible
12 Oct 5.2 01:26:43 10° ENE 01:27:37 12° ENE 01:27:37 12° ENE visible
12 Oct 2.5 03:02:12 10° NNE 03:06:04 60° N 03:06:04 60° N visible
12 Oct 4.1 04:41:37 10° NNW 04:43:29 12° NW 04:44:31 12° WNW visible
13 Oct 4.4 02:01:50 10° NE 02:04:25 24° ENE 02:04:25 24° ENE visible
13 Oct 2.9 03:39:00 10° N 03:42:53 36° NW 03:42:53 36° NW visible
14 Oct 3.3 02:37:57 10° NNE 02:41:14 42° NE 02:41:14 42° NE visible
14 Oct 3.7 04:16:16 10° NNW 04:19:31 19° WNW 04:19:42 19° WNW visible
15 Oct 5.1 01:38:17 10° NE 01:39:35 14° ENE 01:39:35 14° ENE visible
15 Oct 2.8 03:14:30 10° N 03:18:03 47° NNW 03:18:03 47° NNW visible
